Location: City of Moscow
(46.7306°N, 116.9989°W)
Time: 07:15:57
(UTC+00:00)

USA 234 - Pass Details

Date: 13 March 2026
Orbit: 1102 x 1106 km, 123.0° (Epoch: 4 January)

Event Time Altitude Azimuth Distance (km) Brightness Sun altitude
Exits shadow 07:02:53 15° 287° (WNW) 2,599 5.4 -44.6°
Drops below altitude 10° 07:04:04 10° 293° (WNW) 2,967 5.8 -44.6°
Sets 07:06:52 0° 304° (WNW) 3,929 6.7 -44.8°
